2023/02/11 23:41:43+0000,-34.39,-43.70,-32.07,-43.39,-42.92,-50.74
2023/02/11 23:42:35+0000,-34.99,-44.70,-31.79,-45.16,-42.95,-51.40
2023/02/11 23:43:27+0000,-35.32,-44.70,-31.47,-44.97,-43.13,-49.54
2023/02/11 23:44:19+0000,-34.65,-44.56,-31.64,-45.16,-44.34,-49.98
2023/02/11 23:45:11+0000,-34.22,-43.21,-31.70,-44.37,-44.22,-50.86
2023/02/11 23:46:03+0000,-33.78,-42.82,-31.72,-44.48,-43.00,-53.50
2023/02/11 23:46:55+0000,-35.09,-43.03,-32.37,-45.56,-44.90,-48.94
2023/02/11 23:47:47+0000,-34.64,-42.75,-32.19,-44.58,-42.95,-54.15
2023/02/11 23:48:39+0000,-34.75,-43.03,-31.31,-43.28,-44.04,-52.12
2023/02/11 23:49:31+0000,-35.07,-43.52,-31.96,-43.68,-43.66,-51.77
2023/02/11 23:50:24+0000,-34.06,-42.80,-32.18,-43.73,-43.31,-47.05
2023/02/11 23:51:23+0000,-33.85,-43.63,-32.17,-44.13,-43.46,-49.79
2023/02/11 23:52:15+0000,-35.01,-43.64,-32.31,-42.32,-44.09,-51.03
2023/02/11 23:53:07+0000,-34.65,-43.22,-31.44,-43.87,-43.16,-52.10
2023/02/11 23:53:59+0000,-35.09,-43.65,-32.38,-43.40,-43.83,-47.90
2023/02/11 23:54:51+0000,-34.49,-44.49,-32.27,-44.44,-43.32,-50.93
2023/02/11 23:55:43+0000,-35.21,-43.27,-32.38,-42.86,-42.76,-52.52
2023/02/11 23:56:35+0000,-34.73,-44.48,-32.51,-44.25,-43.32,-53.54
2023/02/11 23:57:27+0000,-34.57,-44.51,-32.60,-42.58,-44.34,-50.90
2023/02/11 23:58:19+0000,-34.73,-44.20,-32.21,-44.09,-43.07,-51.71
2023/02/11 23:59:11+0000,-34.08,-44.30,-31.82,-42.75,-44.20,-49.70
2023/02/12 00:00:03+0000,-34.45,-44.88,-32.90,-43.67,-43.77,-49.86
2023/02/12 00:01:07+0000,-35.44,-45.22,-31.88,-43.16,-43.91,-50.81
2023/02/12 00:01:59+0000,-34.35,-45.05,-31.96,-65.26,-43.32,-49.80
2023/02/12 00:02:51+0000,-34.64,-44.67,-31.81,-66.17,-43.05,-50.04
2023/02/12 00:03:43+0000,-34.21,-44.23,-31.96,-42.37,-43.38,-52.14
2023/02/12 00:04:35+0000,-34.13,-44.53,-32.27,-41.67,-43.87,-51.34
2023/02/12 00:05:27+0000,-34.31,-45.28,-31.94,-43.69,-43.18,-49.72
2023/02/12 00:06:19+0000,-34.59,-45.69,-32.19,-44.61,-43.12,-49.97
2023/02/12 00:07:11+0000,-34.90,-44.66,-32.45,-43.76,-43.98,-52.06
2023/02/12 00:08:03+0000,-35.16,-44.73,-32.09,-45.62,-43.07,-51.96
2023/02/12 00:08:55+0000,-34.11,-44.48,-32.03,-44.12,-43.92,-49.16
2023/02/12 00:09:47+0000,-35.44,-44.59,-32.13,-44.93,-42.79,-52.55
2023/02/12 00:10:39+0000,-34.78,-44.65,-31.87,-43.49,-43.53,-52.02
2023/02/12 00:11:39+0000,-34.98,-44.83,-31.52,-42.86,-43.80,-52.31
2023/02/12 00:12:31+0000,-33.90,-44.67,-32.13,-44.17,-42.65,-53.39
2023/02/12 00:13:23+0000,-34.66,-43.80,-32.20,-43.48,-43.06,-49.77
2023/02/12 00:14:15+0000,-35.11,-45.22,-31.90,-42.61,-43.01,-51.77
2023/02/12 00:15:07+0000,-34.52,-44.89,-31.98,-42.94,-42.58,-50.17
2023/02/12 00:15:59+0000,-35.27,-45.13,-31.46,-43.84,-42.99,-50.39
2023/02/12 00:16:51+0000,-35.16,-44.66,-32.87,-43.68,-43.36,-49.88
2023/02/12 00:17:43+0000,-34.97,-44.92,-32.13,-43.31,-43.49,-50.13
2023/02/12 00:18:35+0000,-34.33,-45.27,-32.06,-44.19,-43.59,-47.42
2023/02/12 00:19:27+0000,-34.83,-44.46,-32.81,-44.06,-43.01,-50.98
2023/02/12 00:20:19+0000,-34.51,-44.42,-32.24,-43.54,-43.33,-48.53
2023/02/12 00:21:18+0000,-35.02,-44.69,-32.31,-43.89,-43.19,-49.30
2023/02/12 00:22:10+0000,-34.93,-45.63,-32.40,-41.99,-44.32,-51.77
2023/02/12 00:23:02+0000,-34.80,-43.55,-32.74,-43.34,-42.78,-53.23
2023/02/12 00:23:54+0000,-34.90,-45.04,-32.43,-43.12,-43.81,-48.15
2023/02/12 00:24:46+0000,-35.31,-45.26,-32.49,-43.03,-43.58,-54.05
2023/02/12 00:25:38+0000,-35.04,-44.37,-32.68,-41.88,-43.37,-52.46
2023/02/12 00:26:30+0000,-34.96,-45.25,-31.74,-44.47,-42.90,-53.95
2023/02/12 00:27:22+0000,-34.51,-44.80,-31.88,-43.82,-43.47,-49.51
2023/02/12 00:28:15+0000,-34.84,-45.25,-32.61,-43.19,-42.54,-48.20
2023/02/12 00:29:07+0000,-35.65,-45.15,-32.62,-41.91,-43.66,-48.18
2023/02/12 00:29:59+0000,-34.73,-44.91,-32.47,-43.35,-43.62,-50.16
2023/02/12 00:30:51+0000,-36.09,-44.60,-32.04,-43.13,-43.56,-49.80
2023/02/12 00:31:50+0000,-35.66,-45.43,-32.35,-43.96,-44.33,-49.41
2023/02/12 00:32:42+0000,-35.85,-42.79,-32.07,-41.65,-44.29,-48.85
2023/02/12 00:33:34+0000,-35.19,-46.84,-32.36,-44.16,-43.48,-51.87
2023/02/12 00:34:27+0000,-35.84,-43.70,-32.28,-43.44,-43.86,-47.45
2023/02/12 00:35:19+0000,-34.98,-43.04,-31.74,-44.31,-42.53,-50.65
2023/02/12 00:36:11+0000,-35.19,-45.37,-32.63,-42.36,-43.19,-51.04
2023/02/12 00:37:03+0000,-36.06,-46.37,-32.39,-43.26,-43.09,-54.22
2023/02/12 00:37:55+0000,-36.02,-46.83,-32.34,-44.28,-43.87,-49.17
2023/02/12 00:38:47+0000,-35.71,-45.31,-32.21,-41.05,-42.96,-53.44
2023/02/12 00:39:39+0000,-34.75,-45.15,-31.49,-43.38,-43.43,-51.42
2023/02/12 00:40:31+0000,-34.92,-44.52,-31.44,-43.78,-43.47,-53.53
2023/02/12 00:41:30+0000,-35.49,-45.48,-32.16,-43.93,-42.29,-48.62
2023/02/12 00:42:22+0000,-34.96,-45.06,-30.19,-43.61,-43.90,-46.02
2023/02/12 00:43:14+0000,-35.64,-45.15,-32.00,-42.03,-43.40,-52.08
2023/02/12 00:44:06+0000,-34.94,-44.39,-31.96,-43.09,-44.27,-51.09
2023/02/12 00:44:59+0000,-34.85,-42.88,-31.69,-44.40,-43.84,-45.19
2023/02/12 00:45:51+0000,-35.80,-44.86,-30.81,-45.28,-43.81,-45.82
2023/02/12 00:46:43+0000,-36.43,-44.63,-31.97,-41.88,-42.32,-51.20
2023/02/12 00:47:35+0000,-35.49,-43.73,-32.32,-45.45,-43.54,-51.02
2023/02/12 00:48:27+0000,-35.35,-44.33,-29.98,-44.25,-44.06,-50.38
2023/02/12 00:49:19+0000,-35.23,-44.38,-30.71,-45.79,-43.38,-51.48
2023/02/12 00:50:11+0000,-35.10,-45.05,-31.78,-43.34,-44.91,-51.94
2023/02/12 00:51:09+0000,-35.31,-43.85,-31.92,-44.52,-43.12,-52.37
2023/02/12 00:52:01+0000,-34.95,-44.19,-31.70,-43.03,-43.89,-48.69
2023/02/12 00:52:53+0000,-35.69,-45.22,-30.19,-65.54,-43.77,-50.21
2023/02/12 00:53:45+0000,-35.14,-44.37,-29.72,-43.32,-43.49,-52.54
2023/02/12 00:54:37+0000,-36.26,-45.55,-32.10,-64.67,-42.70,-51.63
2023/02/12 00:55:29+0000,-34.94,-44.65,-32.27,-43.34,-43.45,-49.83
2023/02/12 00:56:21+0000,-36.21,-44.99,-31.60,-44.59,-44.35,-51.19
2023/02/12 00:57:13+0000,-35.52,-44.69,-32.65,-42.89,-43.68,-52.92
2023/02/12 00:58:05+0000,-35.51,-45.43,-31.29,-45.26,-42.81,-52.86
2023/02/12 00:58:57+0000,-35.02,-44.33,-31.98,-45.13,-44.52,-47.69
2023/02/12 00:59:50+0000,-35.15,-44.67,-31.18,-45.92,-43.70,-46.06
2023/02/12 01:00:42+0000,-35.69,-44.18,-32.37,-44.22,-44.08,-52.26
2023/02/12 01:01:41+0000,-35.03,-42.88,-32.29,-44.28,-43.42,-52.08
2023/02/12 01:02:33+0000,-35.54,-43.84,-30.62,-45.12,-43.70,-52.19
2023/02/12 01:03:25+0000,-36.00,-44.29,-31.94,-45.55,-44.37,-51.03
2023/02/12 01:04:17+0000,-35.09,-44.07,-31.98,-43.75,-43.91,-53.81
2023/02/12 01:05:09+0000,-35.03,-43.71,-31.31,-43.25,-44.28,-51.54
2023/02/12 01:06:01+0000,-35.88,-44.51,-31.13,-43.45,-43.48,-53.79
2023/02/12 01:06:53+0000,-36.37,-46.18,-31.81,-44.59,-44.26,-51.43
2023/02/12 01:07:45+0000,-36.23,-44.10,-32.46,-43.53,-44.40,-53.77
2023/02/12 01:08:37+0000,-35.18,-44.26,-31.13,-42.67,-43.15,-52.15
2023/02/12 01:09:29+0000,-35.31,-43.34,-30.06,-44.08,-42.96,-51.10
2023/02/12 01:10:21+0000,-36.18,-43.92,-32.17,-44.43,-43.49,-52.59
2023/02/12 01:11:19+0000,-35.33,-43.82,-31.78,-43.49,-44.32,-52.02
2023/02/12 01:12:12+0000,-35.58,-43.61,-32.35,-44.78,-44.15,-51.01
2023/02/12 01:13:04+0000,-35.57,-44.05,-31.51,-44.92,-43.38,-49.97
2023/02/12 01:13:56+0000,-35.03,-43.24,-31.58,-44.46,-44.36,-50.26
2023/02/12 01:14:48+0000,-35.23,-43.05,-31.04,-44.45,-43.66,-52.30
2023/02/12 01:15:40+0000,-35.64,-43.64,-31.05,-43.35,-43.13,-48.00
2023/02/12 01:16:32+0000,-35.95,-43.47,-30.72,-44.86,-44.08,-53.62
2023/02/12 01:17:24+0000,-35.66,-43.78,-31.45,-43.65,-43.65,-51.06
2023/02/12 01:18:16+0000,-35.91,-41.86,-32.12,-43.16,-43.17,-53.16
2023/02/12 01:19:08+0000,-35.50,-43.62,-30.40,-44.41,-41.54,-52.64
2023/02/12 01:20:00+0000,-35.21,-43.37,-30.71,-43.98,-43.40,-52.29
2023/02/12 01:21:00+0000,-34.88,-44.13,-30.80,-40.62,-41.57,-52.69
2023/02/12 01:21:52+0000,-35.80,-44.45,-32.66,-44.46,-44.22,-52.48
2023/02/12 01:22:44+0000,-35.15,-43.28,-32.16,-43.67,-43.71,-52.85
2023/02/12 01:23:36+0000,-35.89,-43.83,-30.14,-43.26,-42.59,-53.12
2023/02/12 01:24:28+0000,-34.95,-43.62,-32.42,-42.71,-42.77,-52.49
2023/02/12 01:25:20+0000,-35.64,-44.57,-31.61,-43.59,-43.59,-49.22
2023/02/12 01:26:12+0000,-34.86,-43.32,-32.12,-42.54,-43.49,-53.36
2023/02/12 01:27:04+0000,-34.80,-43.05,-30.34,-44.63,-43.26,-53.12
2023/02/12 01:27:56+0000,-35.41,-42.28,-32.04,-42.76,-44.31,-53.56
2023/02/12 01:28:48+0000,-34.03,-42.97,-31.18,-43.09,-43.55,-52.84
2023/02/12 01:29:41+0000,-35.39,-42.53,-31.51,-42.50,-43.65,-53.04
2023/02/12 01:30:33+0000,-35.53,-43.14,-31.08,-43.53,-43.29,-54.08
2023/02/12 01:31:32+0000,-35.38,-43.91,-30.46,-43.83,-43.03,-53.56
2023/02/12 01:32:24+0000,-35.00,-43.21,-32.06,-43.13,-43.34,-53.05
2023/02/12 01:33:16+0000,-35.97,-42.82,-30.92,-43.44,-44.35,-53.65
2023/02/12 01:34:08+0000,-34.85,-44.87,-29.93,-43.80,-44.07,-53.01
2023/02/12 01:35:00+0000,-35.12,-43.60,-31.40,-43.78,-43.63,-53.08
2023/02/12 01:35:52+0000,-35.58,-44.50,-31.99,-42.84,-44.05,-52.42
2023/02/12 01:36:44+0000,-35.43,-43.00,-31.47,-42.12,-44.03,-53.15
2023/02/12 01:37:36+0000,-35.70,-44.49,-30.53,-43.62,-44.14,-53.11
2023/02/12 01:38:28+0000,-35.66,-42.99,-32.10,-42.62,-43.79,-53.50
2023/02/12 01:39:20+0000,-34.83,-44.14,-32.23,-44.35,-43.66,-52.10
2023/02/12 01:40:12+0000,-35.26,-43.57,-32.19,-41.00,-43.30,-54.01
2023/02/12 01:41:13+0000,-34.97,-44.13,-32.03,-41.34,-44.05,-52.70
2023/02/12 01:42:05+0000,-35.15,-44.43,-30.38,-45.67,-43.95,-52.89
2023/02/12 01:42:57+0000,-35.23,-43.91,-31.40,-44.85,-43.96,-52.35
2023/02/12 01:43:49+0000,-35.15,-43.63,-31.73,-44.80,-44.12,-52.35
2023/02/12 01:44:41+0000,-34.64,-43.91,-30.80,-44.74,-44.31,-53.64
2023/02/12 01:45:33+0000,-35.20,-44.16,-29.97,-43.68,-43.01,-53.90
2023/02/12 01:46:25+0000,-34.76,-43.81,-32.12,-43.29,-44.70,-53.57
2023/02/12 01:47:17+0000,-35.43,-43.40,-32.03,-43.85,-43.66,-53.81
2023/02/12 01:48:09+0000,-35.04,-43.15,-30.32,-40.98,-43.35,-53.35
2023/02/12 01:49:01+0000,-34.59,-43.69,-30.66,-44.14,-43.44,-54.01
2023/02/12 01:49:53+0000,-34.69,-41.61,-31.65,-43.70,-44.72,-54.07
2023/02/12 01:50:45+0000,-35.05,-42.56,-31.53,-43.21,-42.39,-53.70
2023/02/12 01:51:45+0000,-34.76,-43.42,-32.49,-43.40,-42.84,-53.64
2023/02/12 01:52:37+0000,-34.98,-44.66,-31.22,-41.17,-42.57,-53.18
2023/02/12 01:53:29+0000,-34.77,-42.19,-32.34,-43.91,-43.63,-53.82
2023/02/12 01:54:21+0000,-35.37,-42.54,-32.11,-39.47,-42.65,-54.26
2023/02/12 01:55:13+0000,-34.14,-41.85,-32.54,-38.92,-42.66,-53.33
2023/02/12 01:56:05+0000,-34.48,-42.60,-31.96,-44.11,-43.63,-52.68
2023/02/12 01:56:57+0000,-34.46,-43.12,-32.21,-44.78,-45.34,-53.40
2023/02/12 01:57:49+0000,-35.80,-41.90,-32.25,-45.19,-43.64,-54.27
2023/02/12 01:58:41+0000,-34.83,-44.33,-32.26,-44.81,-45.53,-52.68
2023/02/12 01:59:33+0000,-34.83,-43.07,-32.20,-44.65,-44.63,-53.26
2023/02/12 02:00:25+0000,-36.10,-44.25,-31.71,-45.59,-44.23,-54.59
2023/02/12 02:01:25+0000,-34.76,-43.86,-32.03,-45.32,-44.80,-54.04
2023/02/12 02:02:17+0000,-34.98,-44.60,-32.18,-45.32,-44.74,-53.89
2023/02/12 02:03:09+0000,-35.06,-44.30,-31.66,-44.96,-45.46,-53.20
2023/02/12 02:04:01+0000,-35.27,-41.86,-32.07,-44.87,-44.77,-53.92
2023/02/12 02:04:53+0000,-34.72,-43.28,-32.48,-46.18,-44.62,-53.84
2023/02/12 02:05:45+0000,-35.30,-42.71,-32.53,-44.88,-44.39,-53.70
2023/02/12 02:06:37+0000,-34.89,-40.25,-31.92,-43.94,-44.59,-53.80
2023/02/12 02:07:29+0000,-35.09,-41.49,-32.10,-45.07,-43.67,-53.76
2023/02/12 02:08:21+0000,-35.29,-42.51,-32.57,-44.55,-43.62,-54.36
2023/02/12 02:09:14+0000,-35.44,-42.78,-31.77,-43.52,-44.38,-53.43
2023/02/12 02:10:06+0000,-35.55,-41.11,-32.10,-44.28,-44.72,-53.52
2023/02/12 02:11:10+0000,-34.97,-42.56,-32.28,-44.13,-45.85,-53.35
2023/02/12 02:12:02+0000,-34.42,-41.91,-31.72,-44.19,-43.85,-54.00
2023/02/12 02:12:54+0000,-35.20,-41.38,-31.94,-45.46,-43.81,-54.11
2023/02/12 02:13:46+0000,-35.51,-41.28,-31.82,-43.27,-44.84,-54.77
2023/02/12 02:14:38+0000,-35.51,-42.81,-32.25,-42.70,-43.64,-53.85
2023/02/12 02:15:30+0000,-35.13,-43.28,-32.14,-41.83,-44.19,-53.45
2023/02/12 02:16:22+0000,-34.99,-41.74,-31.79,-40.89,-44.21,-53.58
2023/02/12 02:17:14+0000,-35.43,-43.74,-31.96,-43.66,-44.47,-53.82
2023/02/12 02:18:06+0000,-34.50,-44.14,-31.78,-43.19,-44.09,-53.81
2023/02/12 02:18:58+0000,-35.47,-41.91,-32.00,-42.87,-44.60,-54.00
2023/02/12 02:19:50+0000,-35.07,-44.06,-31.86,-40.18,-44.50,-54.22
2023/02/12 02:20:42+0000,-35.11,-42.32,-32.19,-44.04,-44.28,-53.19
2023/02/12 02:21:41+0000,-34.95,-43.14,-31.80,-44.46,-44.54,-53.15
2023/02/12 02:22:33+0000,-34.96,-43.17,-32.16,-45.52,-47.28,-53.47
2023/02/12 02:23:25+0000,-35.11,-43.91,-31.76,-44.07,-47.80,-54.58
2023/02/12 02:24:17+0000,-35.06,-40.50,-31.05,-43.48,-46.96,-54.64
2023/02/12 02:25:09+0000,-35.26,-42.60,-32.43,-39.42,-46.37,-52.81
2023/02/12 02:26:01+0000,-34.66,-44.19,-32.41,-39.54,-46.43,-53.84
2023/02/12 02:26:53+0000,-32.51,-40.19,-31.43,-38.86,-46.14,-53.88
2023/02/12 02:27:45+0000,-35.11,-42.63,-31.43,-38.75,-45.58,-53.01
2023/02/12 02:28:37+0000,-34.94,-43.14,-31.84,-39.07,-46.75,-53.34
2023/02/12 02:29:29+0000,-34.48,-42.95,-31.10,-38.05,-46.68,-53.46
2023/02/12 02:30:21+0000,-34.29,-43.73,-31.38,-38.83,-44.73,-54.21
2023/02/12 02:31:20+0000,-33.35,-41.90,-31.75,-39.43,-46.43,-53.14
2023/02/12 02:32:12+0000,-34.01,-39.47,-32.16,-39.06,-45.86,-52.78
2023/02/12 02:33:04+0000,-34.81,-42.21,-31.89,-40.23,-45.04,-52.67
2023/02/12 02:33:56+0000,-33.36,-42.78,-32.10,-40.49,-44.26,-53.41
2023/02/12 02:34:48+0000,-33.73,-39.35,-31.34,-41.70,-46.17,-53.38
2023/02/12 02:35:40+0000,-33.96,-41.45,-32.20,-40.54,-47.06,-53.16
2023/02/12 02:36:32+0000,-33.83,-42.07,-32.14,-40.25,-46.52,-53.77
2023/02/12 02:37:24+0000,-34.47,-39.05,-31.85,-38.27,-46.78,-53.68
2023/02/12 02:38:16+0000,-34.31,-40.92,-31.56,-38.32,-45.52,-53.70
2023/02/12 02:39:08+0000,-33.86,-42.52,-31.85,-37.33,-46.13,-53.49
2023/02/12 02:40:00+0000,-34.78,-40.45,-32.31,-37.90,-46.68,-54.25
2023/02/12 02:40:59+0000,-33.91,-42.51,-32.44,-38.55,-46.30,-53.64
2023/02/12 02:41:51+0000,-34.48,-43.11,-31.17,-38.89,-43.50,-53.66
2023/02/12 02:42:43+0000,-33.93,-41.40,-31.86,-38.27,-46.96,-54.14
2023/02/12 02:43:35+0000,-34.38,-41.61,-32.64,-39.48,-45.24,-54.30
2023/02/12 02:44:27+0000,-35.04,-42.07,-32.60,-37.17,-47.23,-54.15
2023/02/12 02:45:19+0000,-34.88,-41.61,-32.72,-40.24,-46.63,-53.28
2023/02/12 02:46:11+0000,-33.55,-42.08,-32.04,-35.91,-46.52,-53.55
2023/02/12 02:47:04+0000,-33.80,-41.00,-32.09,-38.18,-45.09,-54.74
2023/02/12 02:47:56+0000,-34.83,-42.21,-31.48,-37.77,-46.19,-54.29
2023/02/12 02:48:48+0000,-34.81,-41.29,-31.80,-39.17,-46.25,-2.08
2023/02/12 02:49:40+0000,-33.59,-41.19,-32.26,-39.13,-46.35,-53.94
2023/02/12 02:50:32+0000,-34.95,-42.71,-32.14,-37.10,-46.43,-53.86
2023/02/12 02:51:31+0000,-34.01,-42.24,-32.51,-36.84,-46.35,-53.47
2023/02/12 02:52:23+0000,-33.96,-42.77,-31.67,-37.18,-45.68,-54.34
2023/02/12 02:53:15+0000,-34.39,-42.63,-32.45,-39.80,-46.93,-53.60
2023/02/12 02:54:07+0000,-33.53,-43.03,-31.38,-38.51,-45.35,-53.76
2023/02/12 02:54:59+0000,-33.28,-41.82,-31.72,-37.51,-45.31,-53.65
2023/02/12 02:55:51+0000,-33.67,-43.68,-31.78,-39.83,-45.70,-53.07
2023/02/12 02:56:43+0000,-34.11,-42.25,-32.41,-38.79,-45.86,-52.77
2023/02/12 02:57:35+0000,-33.84,-41.72,-32.16,-39.44,-45.93,-53.38
2023/02/12 02:58:27+0000,-34.23,-42.60,-32.09,-37.09,-46.45,-52.61
2023/02/12 02:59:19+0000,-34.49,-41.84,-31.20,-39.72,-45.98,-53.42
2023/02/12 03:00:12+0000,-34.11,-40.05,-31.44,-38.78,-46.24,-52.69
2023/02/12 03:01:11+0000,-34.24,-41.81,-31.70,-39.59,-45.60,-53.18
2023/02/12 03:02:03+0000,-33.88,-42.05,-32.18,-40.42,-45.95,-53.50
2023/02/12 03:02:55+0000,-34.82,-43.45,-31.14,-36.56,-45.73,-52.78
2023/02/12 03:03:47+0000,-33.98,-41.37,-31.50,-40.82,-45.71,-53.23
2023/02/12 03:04:39+0000,-33.76,-41.82,-31.83,-37.99,-46.06,-53.57
2023/02/12 03:05:31+0000,-34.76,-41.73,-31.87,-36.72,-46.23,-53.35
2023/02/12 03:06:23+0000,-33.85,-42.53,-31.33,-37.14,-45.53,-53.55
2023/02/12 03:07:15+0000,-33.61,-41.91,-31.52,-39.56,-46.21,-53.60
2023/02/12 03:08:07+0000,-33.91,-41.17,-31.80,-38.95,-45.92,-53.02
2023/02/12 03:08:59+0000,-34.21,-43.06,-31.77,-37.28,-46.75,-53.77
2023/02/12 03:09:51+0000,-34.25,-45.21,-31.58,-38.37,-45.63,-52.81
2023/02/12 03:10:43+0000,-34.39,-43.42,-31.11,-38.68,-46.20,-52.69
2023/02/12 03:11:42+0000,-33.47,-43.87,-31.71,-39.17,-46.12,-52.58
2023/02/12 03:12:34+0000,-34.34,-43.26,-31.72,-39.52,-45.58,-53.50
2023/02/12 03:13:26+0000,-33.70,-42.37,-32.14,-37.01,-45.32,-52.46
2023/02/12 03:14:18+0000,-33.74,-39.03,-31.95,-39.55,-46.44,-52.52
2023/02/12 03:15:10+0000,-34.21,-41.01,-31.50,-39.69,-46.09,-52.71
2023/02/12 03:16:02+0000,-33.94,-39.95,-31.97,-36.09,-46.23,-52.78
2023/02/12 03:16:54+0000,-33.42,-41.08,-31.85,-35.15,-46.13,-53.68
2023/02/12 03:17:46+0000,-34.11,-40.05,-31.77,-40.42,-46.04,-53.09
2023/02/12 03:18:38+0000,-34.00,-43.11,-31.02,-39.97,-45.70,-52.88
2023/02/12 03:19:30+0000,-34.04,-39.90,-31.12,-38.17,-46.28,-53.56
2023/02/12 03:20:23+0000,-34.12,-41.60,-31.71,-37.27,-45.56,-53.61
2023/02/12 03:21:21+0000,-34.04,-41.98,-31.90,-37.85,-46.04,-53.18
2023/02/12 03:22:13+0000,-35.40,-41.98,-31.47,-39.72,-46.80,-53.61
2023/02/12 03:23:05+0000,-33.91,-41.56,-31.39,-39.31,-46.08,-52.63
2023/02/12 03:23:57+0000,-34.79,-42.90,-31.75,-37.22,-45.96,-52.64
2023/02/12 03:24:49+0000,-34.23,-39.92,-31.12,-39.18,-45.78,-53.24
2023/02/12 03:25:41+0000,-34.10,-42.61,-31.72,-38.29,-45.28,-52.49
2023/02/12 03:26:33+0000,-34.42,-40.63,-31.72,-39.17,-45.72,-53.04
2023/02/12 03:27:25+0000,-34.82,-40.72,-31.62,-37.83,-46.05,-53.07
2023/02/12 03:28:17+0000,-34.58,-41.09,-31.46,-38.79,-45.30,-53.15
2023/02/12 03:29:09+0000,-34.23,-38.11,-31.36,-39.52,-46.61,-53.11
2023/02/12 03:30:02+0000,-34.88,-42.63,-31.70,-37.02,-46.21,-53.14
2023/02/12 03:31:06+0000,-33.59,-40.16,-31.64,-39.55,-45.96,-52.81
2023/02/12 03:31:58+0000,-34.11,-41.92,-32.12,-38.15,-45.49,-53.39
2023/02/12 03:32:50+0000,-33.66,-43.84,-31.99,-40.41,-45.86,-52.76
2023/02/12 03:33:42+0000,-34.25,-41.67,-32.15,-39.59,-45.61,-53.30
2023/02/12 03:34:34+0000,-33.53,-40.84,-31.13,-38.79,-45.72,-53.13
2023/02/12 03:35:27+0000,-34.10,-41.19,-31.39,-36.59,-45.61,-52.25
2023/02/12 03:36:19+0000,-34.30,-42.67,-31.67,-40.08,-45.39,-53.17
2023/02/12 03:37:11+0000,-35.13,-41.60,-31.18,-40.17,-46.36,-52.89
2023/02/12 03:38:03+0000,-35.04,-43.35,-30.71,-36.27,-46.23,-52.86
2023/02/12 03:38:55+0000,-34.13,-40.27,-31.30,-37.00,-46.43,-53.23
2023/02/12 03:39:47+0000,-34.33,-43.35,-31.90,-39.79,-45.83,-53.21
2023/02/12 03:40:39+0000,-34.08,-44.38,-32.39,-39.97,-45.90,-52.80
2023/02/12 03:41:38+0000,-34.31,-44.74,-31.31,-40.25,-45.98,-53.01
2023/02/12 03:42:30+0000,-34.95,-41.17,-31.69,-37.93,-46.09,-53.53
2023/02/12 03:43:22+0000,-34.14,-43.81,-31.70,-37.53,-46.81,-53.23
2023/02/12 03:44:14+0000,-33.73,-43.21,-32.00,-40.04,-46.09,-53.20
2023/02/12 03:45:06+0000,-34.05,-43.63,-31.67,-39.32,-46.88,-53.39
2023/02/12 03:45:58+0000,-33.98,-42.53,-32.23,-39.01,-46.01,-53.64
2023/02/12 03:46:50+0000,-33.13,-43.81,-31.60,-40.08,-46.25,-53.54
2023/02/12 03:47:42+0000,-34.14,-41.42,-30.46,-38.82,-46.77,-52.67
2023/02/12 03:48:34+0000,-35.52,-43.73,-29.90,-39.54,-46.37,-54.05
2023/02/12 03:49:26+0000,-34.15,-43.85,-31.89,-39.86,-46.01,-53.06
2023/02/12 03:50:18+0000,-34.32,-42.59,-32.09,-39.61,-46.20,-52.73
2023/02/12 03:51:17+0000,-34.49,-41.96,-31.97,-39.04,-46.02,-53.98
2023/02/12 03:52:09+0000,-33.94,-41.84,-29.40,-38.84,-46.05,-53.54
2023/02/12 03:53:01+0000,-35.01,-41.42,-27.69,-39.11,-46.36,-53.03
2023/02/12 03:53:53+0000,-34.11,-42.68,-31.86,-39.36,-46.39,-53.42
2023/02/12 03:54:45+0000,-34.00,-42.95,-31.93,-39.34,-46.61,-53.21
2023/02/12 03:55:37+0000,-33.99,-43.35,-29.93,-38.65,-45.98,-53.21
2023/02/12 03:56:29+0000,-34.47,-41.80,-32.00,-39.41,-46.40,-52.89
2023/02/12 03:57:21+0000,-34.00,-41.95,-31.45,-39.88,-46.45,-52.99
2023/02/12 03:58:13+0000,-33.97,-41.95,-31.93,-39.02,-46.23,-52.96
2023/02/12 03:59:05+0000,-34.30,-42.41,-30.55,-39.51,-45.54,-53.59
2023/02/12 03:59:58+0000,-33.57,-42.45,-31.35,-39.31,-46.54,-52.87
2023/02/12 04:00:50+0000,-34.65,-42.76,-32.15,-40.38,-46.28,-53.41
2023/02/12 04:01:49+0000,-34.27,-43.51,-31.29,-39.92,-46.83,-53.61
2023/02/12 04:02:41+0000,-34.37,-41.58,-31.85,-41.03,-46.31,-48.33
2023/02/12 04:03:33+0000,-34.37,-41.47,-31.69,-40.23,-46.72,-53.32
2023/02/12 04:04:25+0000,-34.26,-40.94,-31.83,-38.86,-46.29,-52.98
2023/02/12 04:05:17+0000,-31.63,-40.86,-31.28,-39.34,-45.85,-53.23
2023/02/12 04:06:09+0000,-34.67,-42.59,-31.33,-39.06,-45.95,-53.61
2023/02/12 04:07:01+0000,-34.26,-39.91,-31.89,-39.12,-47.29,-52.80
2023/02/12 04:07:53+0000,-34.59,-41.01,-31.85,-39.04,-46.89,-53.05
2023/02/12 04:08:46+0000,-34.42,-41.73,-31.70,-38.76,-46.58,-53.14
2023/02/12 04:09:38+0000,-34.54,-42.90,-31.23,-40.13,-47.00,-53.01
2023/02/12 04:10:30+0000,-34.75,-42.60,-31.74,-39.73,-46.61,-53.75
2023/02/12 04:11:29+0000,-34.20,-43.48,-31.57,-39.28,-46.73,-53.21
2023/02/12 04:12:21+0000,-33.85,-44.13,-31.70,-39.20,-46.34,-53.08
2023/02/12 04:13:13+0000,-33.62,-41.50,-31.81,-39.30,-46.31,-53.03
2023/02/12 04:14:05+0000,-33.66,-43.54,-31.29,-38.94,-46.69,-53.56
2023/02/12 04:14:57+0000,-33.96,-41.49,-31.38,-39.98,-46.95,-53.44
2023/02/12 04:15:49+0000,-32.96,-41.97,-31.52,-40.78,-46.43,-52.87
2023/02/12 04:16:41+0000,-34.43,-42.16,-32.04,-39.86,-46.59,-52.96
2023/02/12 04:17:33+0000,-33.56,-40.72,-31.10,-39.42,-47.03,-52.76
2023/02/12 04:18:25+0000,-30.40,-40.60,-31.53,-39.15,-46.81,-52.72
2023/02/12 04:19:17+0000,-34.04,-42.60,-32.14,-39.77,-46.03,-52.69
2023/02/12 04:20:10+0000,-34.02,-41.99,-31.14,-39.69,-46.85,-53.48
2023/02/12 04:21:10+0000,-34.17,-42.79,-30.96,-38.77,-46.25,-52.50
2023/02/12 04:22:02+0000,-33.54,-40.67,-31.36,-39.68,-46.30,-52.98
2023/02/12 04:22:54+0000,-33.56,-40.45,-31.40,-39.32,-45.85,-53.60
2023/02/12 04:23:46+0000,-34.54,-42.13,-31.36,-39.52,-46.42,-53.49
2023/02/12 04:24:38+0000,-33.74,-43.26,-32.26,-38.67,-45.89,-53.35
2023/02/12 04:25:30+0000,-34.69,-40.94,-31.86,-39.67,-46.07,-52.92
2023/02/12 04:26:22+0000,-32.98,-43.23,-31.21,-39.97,-46.34,-53.31
2023/02/12 04:27:14+0000,-33.66,-42.46,-31.44,-39.38,-46.93,-52.75
2023/02/12 04:28:06+0000,-33.24,-44.10,-31.04,-39.73,-46.92,-53.91
2023/02/12 04:28:58+0000,-34.05,-41.80,-31.40,-39.66,-46.84,-53.18
2023/02/12 04:29:50+0000,-33.93,-43.98,-31.36,-38.73,-46.27,-53.04
2023/02/12 04:30:42+0000,-34.62,-42.42,-31.66,-40.06,-46.18,-52.92
2023/02/12 04:31:43+0000,-32.85,-41.61,-32.11,-40.07,-46.29,-53.63
2023/02/12 04:32:35+0000,-34.77,-43.68,-31.66,-39.95,-46.99,-53.03
2023/02/12 04:33:27+0000,-34.08,-42.47,-31.69,-39.13,-46.38,-52.61
2023/02/12 04:34:19+0000,-33.22,-40.48,-31.35,-39.54,-46.60,-53.30
2023/02/12 04:35:11+0000,-34.04,-41.64,-31.89,-39.00,-45.93,-53.57
2023/02/12 04:36:03+0000,-33.89,-41.59,-31.96,-40.49,-46.62,-53.24
2023/02/12 04:36:55+0000,-33.50,-41.61,-32.00,-39.94,-46.60,-54.03
2023/02/12 04:37:47+0000,-34.02,-41.15,-31.95,-40.85,-46.64,-53.35
2023/02/12 04:38:39+0000,-35.02,-43.31,-30.31,-40.17,-45.71,-53.54
2023/02/12 04:39:31+0000,-33.65,-42.13,-30.66,-39.75,-45.98,-54.09
2023/02/12 04:40:24+0000,-32.58,-42.85,-31.94,-40.15,-46.22,-53.02
2023/02/12 04:41:23+0000,-33.06,-42.48,-31.43,-39.66,-47.03,-52.77
2023/02/12 04:42:15+0000,-33.28,-42.85,-31.77,-39.75,-45.97,-52.77
2023/02/12 04:43:07+0000,-33.86,-42.97,-31.53,-40.75,-46.87,-53.72
2023/02/12 04:43:59+0000,-32.70,-43.27,-31.74,-40.89,-46.11,-53.10
2023/02/12 04:44:51+0000,-33.90,-45.85,-31.83,-40.37,-46.64,-53.80
2023/02/12 04:45:43+0000,-33.23,-43.18,-31.90,-40.43,-45.87,-52.56
2023/02/12 04:46:35+0000,-34.87,-42.98,-32.04,-40.65,-46.42,-53.03
2023/02/12 04:47:27+0000,-33.57,-41.57,-31.61,-40.87,-46.60,-52.81
2023/02/12 04:48:20+0000,-34.28,-42.51,-32.51,-40.92,-46.40,-53.36
2023/02/12 04:49:12+0000,-33.74,-43.31,-31.83,-39.92,-46.03,-53.12
2023/02/12 04:50:04+0000,-33.65,-42.11,-31.92,-41.13,-45.71,-53.22
2023/02/12 04:51:04+0000,-31.91,-44.98,-32.24,-40.39,-46.42,-53.14
2023/02/12 04:51:56+0000,-34.55,-42.88,-31.90,-40.23,-46.09,-52.88
2023/02/12 04:52:48+0000,-33.55,-43.46,-31.35,-39.64,-45.74,-53.36
2023/02/12 04:53:40+0000,-33.76,-42.45,-32.06,-40.69,-46.05,-53.29
2023/02/12 04:54:32+0000,-34.16,-44.10,-31.89,-39.38,-45.97,-53.28
2023/02/12 04:55:24+0000,-33.54,-43.86,-31.38,-39.05,-46.12,-53.51